Wray Municipal Airport, CO

12:56 AM MDT on September 22, 2017 (GMT -0600)
Wray Municipal Airport

Weather History for K2V5 - March, 2014

Change the Weather History Date:

Sunday, March 9, 2014

  Actual Average (KSYF) Record (KSYF)
Temperature  
Mean Temperature 56 °F -  
Max Temperature 79 °F 57 °F 79 °F (2014)
Min Temperature 32 °F 25 °F 25 °F (2015)
Degree Days  
Heating Degree Days 10    
Growing Degree Days 6 (Base 50)    
Moisture  
Dew Point 23 °F    
Average Humidity 42    
Maximum Humidity 87    
Minimum Humidity 7    
Precipitation  
Precipitation 0.00 in - - ()
Sea Level Pressure  
Sea Level Pressure 30.05 in    
Wind  
Wind Speed 10 mph (West)    
Max Wind Speed 15 mph    
Max Gust Speed 22 mph    
Visibility 10 miles    
Events      
Averages and records for this station are not official NWS values.
T = Trace of Precipitation, MM = Missing Value Source: NWS Daily Summary

Daily Weather History Graph

Daily Weather History Graph

Search for Another Location

Airport or City:

Trip Planner

Search our weather history database for the weather conditions in past years. The results will help you decide how hot, cold, wet, or windy it might be!

Date:

Astronomy

Mar. 09, 2014 Rise Set
Actual Time 7:09 AM MDT 6:49 PM MDT
Civil Twilight 6:42 AM MDT 7:16 PM MDT
Nautical Twilight 6:11 AM MDT 7:48 PM MDT
Astronomical Twilight 5:39 AM MDT 8:19 PM MDT
Moon 12:43 PM MDT (3/9) 3:37 AM MDT (3/9)
Length of Visible Light 12h 33m
Length of Day
11h 39m
First Quarter, 61% of the Moon is Illuminated
Mar 9
First Quarter
Mar 16
Full
Mar 23
Last Quarter
Mar 30
New
Apr 7
First Quarter

Hourly Weather History & Observations

Time (MDT) Temp. Windchill Dew Point Humidity Pressure Visibility Wind Dir Wind Speed Gust Speed Precip Events Conditions
12:15 AM 32.2 °F 25.8 °F 28.4 °F 86% 30.23 in 10.0 mi WSW 6.9 mph - N/A   Clear
12:35 AM 32.0 °F 24.8 °F 28.2 °F 86% 30.23 in 10.0 mi WSW 8.1 mph - N/A   Clear
12:55 AM 32.0 °F 25.6 °F 28.4 °F 87% 30.21 in 10.0 mi WSW 6.9 mph - N/A   Clear
1:15 AM 34.2 °F 25.7 °F 29.3 °F 82% 30.20 in 10.0 mi SW 11.5 mph - N/A   Clear
1:35 AM 34.5 °F 26.2 °F 29.3 °F 81% 30.19 in 10.0 mi SW 11.5 mph - N/A   Clear
1:55 AM 34.9 °F 26.2 °F 29.3 °F 80% 30.17 in 10.0 mi WSW 12.7 mph - N/A   Clear
3:15 AM 35.4 °F 26.0 °F 29.3 °F 78% 30.16 in 10.0 mi WSW 15.0 mph - N/A   Clear
3:35 AM 35.1 °F 25.5 °F 29.1 °F 79% 30.16 in 10.0 mi WSW 15.0 mph - N/A   Clear
3:55 AM 34.2 °F 24.8 °F 28.9 °F 81% 30.15 in 10.0 mi SW 13.8 mph - N/A   Clear
4:15 AM 34.9 °F 25.3 °F 28.8 °F 78% 30.15 in 10.0 mi SW 15.0 mph - N/A   Clear
4:35 AM 35.6 °F 26.2 °F 28.4 °F 75% 30.14 in 10.0 mi WSW 15.0 mph 19.6 mph N/A   Clear
4:55 AM 35.1 °F 26.4 °F 28.4 °F 77% 30.14 in 10.0 mi WSW 12.7 mph - N/A   Clear
5:15 AM 35.1 °F 26.9 °F 28.4 °F 77% 30.13 in 10.0 mi WSW 11.5 mph - N/A   Clear
5:35 AM 34.3 °F 25.9 °F 28.4 °F 79% 30.13 in 10.0 mi WSW 11.5 mph - N/A   Clear
5:55 AM 34.2 °F 25.2 °F 28.4 °F 79% 30.12 in 10.0 mi WSW 12.7 mph - N/A   Clear
6:15 AM 33.4 °F 24.3 °F 28.0 °F 81% 30.12 in 10.0 mi WSW 12.7 mph - N/A   Clear
6:35 AM 33.4 °F 24.8 °F 27.9 °F 80% 30.11 in 10.0 mi WSW 11.5 mph - N/A   Clear
6:55 AM 33.1 °F 23.9 °F 27.5 °F 80% 30.11 in 10.0 mi WSW 12.7 mph - N/A   Clear
7:15 AM 32.9 °F 23.7 °F 27.5 °F 81% 30.10 in 10.0 mi WSW 12.7 mph - N/A   Clear
7:35 AM 33.6 °F 25.6 °F 27.5 °F 78% 30.10 in 10.0 mi West 10.4 mph - N/A   Clear
8:15 AM 36.0 °F 28.0 °F 27.9 °F 72% 30.09 in 10.0 mi WSW 11.5 mph - N/A   Clear
8:35 AM 37.4 °F 30.3 °F 28.4 °F 70% 30.10 in 10.0 mi West 10.4 mph - N/A   Clear
8:55 AM 41.9 °F 35.0 °F 28.0 °F 58% 30.11 in 10.0 mi West 12.7 mph - N/A   Clear
9:15 AM 45.3 °F 40.1 °F 28.0 °F 51% 30.10 in 10.0 mi WSW 10.4 mph - N/A   Clear
9:35 AM 48.6 °F - 28.6 °F 46% 30.10 in 10.0 mi WSW 8.1 mph - N/A   Clear
9:55 AM 54.1 °F - 25.5 °F 33% 30.10 in 10.0 mi West 10.4 mph - N/A   Clear
10:15 AM 57.9 °F - 26.4 °F 30% 30.09 in 10.0 mi SW 6.9 mph - N/A   Clear
10:35 AM 61.5 °F - 25.3 °F 25% 30.09 in 10.0 mi WSW 10.4 mph - N/A   Clear
10:55 AM 64.9 °F - 22.3 °F 20% 30.08 in 10.0 mi West 11.5 mph 16.1 mph N/A   Clear
11:15 AM 67.8 °F - 19.0 °F 16% 30.07 in 10.0 mi WSW 13.8 mph - N/A   Clear
11:35 AM 70.0 °F - 18.9 °F 14% 30.06 in 10.0 mi West 11.5 mph - N/A   Clear
11:55 AM 71.6 °F - 18.7 °F 13% 30.06 in 10.0 mi West 10.4 mph - N/A   Clear
12:15 PM 73.2 °F - 17.2 °F 12% 30.05 in 10.0 mi WSW 12.7 mph 17.3 mph N/A   Clear
12:35 PM 74.7 °F - 16.2 °F 11% 30.04 in 10.0 mi West 11.5 mph 16.1 mph N/A   Clear
12:55 PM 76.1 °F - 14.0 °F 9% 30.03 in 10.0 mi WSW 12.7 mph - N/A   Clear
1:15 PM 77.0 °F - 14.0 °F 9% 30.02 in 10.0 mi West 11.5 mph - N/A   Clear
1:35 PM 77.9 °F - 13.5 °F 9% 30.01 in 10.0 mi West 12.7 mph 19.6 mph N/A   Clear
1:55 PM 77.4 °F - 12.4 °F 8% 30.00 in 10.0 mi West 12.7 mph 17.3 mph N/A   Clear
2:15 PM 77.5 °F - 7.5 °F 7% 29.99 in 10.0 mi West 11.5 mph 18.4 mph N/A   Clear
2:35 PM 78.3 °F - 7.5 °F 7% 29.98 in 10.0 mi West 13.8 mph 21.9 mph N/A   Clear
2:55 PM 78.6 °F - 10.2 °F 7% 29.97 in 10.0 mi West 12.7 mph 20.7 mph N/A   Clear
3:15 PM 78.3 °F - 13.8 °F 9% 29.96 in 10.0 mi West 12.7 mph 21.9 mph N/A   Clear
3:35 PM 79.2 °F - 14.7 °F 9% 29.96 in 10.0 mi West 13.8 mph 18.4 mph N/A   Clear
3:55 PM 77.5 °F - 13.3 °F 9% 29.96 in 10.0 mi WNW 12.7 mph 17.3 mph N/A   Clear
4:15 PM 77.4 °F - 12.7 °F 9% 29.96 in 10.0 mi WNW 11.5 mph 18.4 mph N/A   Clear
4:35 PM 78.3 °F - 13.8 °F 9% 29.95 in 10.0 mi West 11.5 mph 17.3 mph N/A   Clear
4:55 PM 74.7 °F - 16.2 °F 11% 29.95 in 10.0 mi WNW 8.1 mph - N/A   Clear
5:15 PM 73.8 °F - 16.9 °F 12% 29.95 in 10.0 mi WNW 8.1 mph - N/A   Clear
5:35 PM 73.8 °F - 17.4 °F 12% 29.95 in 10.0 mi NW 6.9 mph - N/A   Clear
5:55 PM 71.6 °F - 19.4 °F 14% 29.95 in 10.0 mi WNW 5.8 mph - N/A   Clear
6:15 PM 66.7 °F - 22.3 °F 18% 29.95 in 10.0 mi WNW 6.9 mph - N/A   Clear
6:35 PM 62.2 °F - 24.1 °F 23% 29.96 in 10.0 mi NW 8.1 mph - N/A   Clear
6:55 PM 59.5 °F - 24.1 °F 26% 29.98 in 10.0 mi NNW 10.4 mph - N/A   Clear
7:15 PM 57.4 °F - 24.8 °F 29% 29.98 in 10.0 mi NW 10.4 mph - N/A   Clear
7:35 PM 59.9 °F - 21.2 °F 22% 29.98 in 10.0 mi NW 10.4 mph - N/A   Clear
7:55 PM 58.8 °F - 21.2 °F 23% 29.98 in 10.0 mi NW 10.4 mph - N/A   Clear
8:15 PM 56.7 °F - 20.8 °F 25% 29.98 in 10.0 mi WNW 9.2 mph - N/A   Clear
8:35 PM 56.8 °F - 20.1 °F 24% 29.99 in 10.0 mi WNW 9.2 mph - N/A   Clear
8:55 PM 52.9 °F - 21.2 °F 29% 29.99 in 10.0 mi West 6.9 mph - N/A   Clear
9:15 PM 50.2 °F - 22.6 °F 34% 30.00 in 10.0 mi West 8.1 mph - N/A   Clear
9:35 PM 47.7 °F - 23.7 °F 39% 30.00 in 10.0 mi West 6.9 mph - N/A   Clear
9:55 PM 46.4 °F 42.9 °F 23.7 °F 41% 30.00 in 10.0 mi West 6.9 mph - N/A   Clear
10:15 PM 45.7 °F 41.5 °F 23.7 °F 42% 30.00 in 10.0 mi SW 8.1 mph - N/A   Clear
10:35 PM 45.7 °F 41.5 °F 23.9 °F 42% 30.00 in 10.0 mi SW 8.1 mph - N/A   Clear
10:55 PM 45.9 °F 43.6 °F 23.7 °F 42% 29.99 in 10.0 mi WSW 4.6 mph - N/A   Clear
11:15 PM 44.8 °F 42.4 °F 24.3 °F 45% 29.98 in 10.0 mi WSW 4.6 mph - N/A   Clear
11:35 PM 42.4 °F 38.1 °F 26.1 °F 52% 29.97 in 10.0 mi West 6.9 mph - N/A   Clear
11:55 PM 41.9 °F 35.4 °F 27.0 °F 55% 29.98 in 10.0 mi WSW 11.5 mph - N/A   Clear
12:15 AM 45.0 °F 38.5 °F 24.1 °F 44% 29.99 in 10.0 mi WSW 13.8 mph - N/A   Clear
12:35 AM 44.2 °F 38.8 °F 24.6 °F 46% 29.98 in 10.0 mi WSW 10.4 mph - N/A   Clear
12:55 AM 43.9 °F 38.8 °F 23.7 °F 45% 29.98 in 10.0 mi West 9.2 mph - N/A   Clear